Radiation Dose at Monitoring Post of Fukushima Daini Nuclear Power Station
Date,Time,MP-1(microSv/h),MP-2(microSv/h),MP-3(microSv/h),MP-4(microSv/h),MP-5(microSv/h),MP-6(microSv/h),MP-7(microSv/h),Wind Direction,Wind Velocity(m/s),Rain
2021/06/25,00:00,0.162,0.151,0.237,0.230,0.229,0.128,0.080,south-southwest,2.6,No
2021/06/25,00:10,0.164,0.152,0.238,0.231,0.232,0.128,0.081,south-southwest,2.5,No
2021/06/25,00:20,0.163,0.150,0.237,0.229,0.229,0.128,0.080,south-southwest,2.2,No
2021/06/25,00:30,0.163,0.151,0.239,0.231,0.232,0.127,0.081,south-southwest,2.4,No
2021/06/25,00:40,0.164,0.151,0.238,0.230,0.230,0.128,0.081,south-southwest,2.4,No
2021/06/25,00:50,0.164,0.151,0.239,0.231,0.231,0.128,0.081,south-southwest,2.3,No
2021/06/25,01:00,0.164,0.150,0.237,0.230,0.230,0.127,0.081,south-southwest,2.5,No
2021/06/25,01:10,0.163,0.151,0.239,0.231,0.232,0.128,0.080,south,2.9,No
2021/06/25,01:20,0.162,0.151,0.237,0.229,0.230,0.128,0.081,south,3.3,No
2021/06/25,01:30,0.163,0.151,0.239,0.231,0.231,0.129,0.081,south-southeast,2.9,No
2021/06/25,01:40,0.164,0.151,0.238,0.229,0.232,0.129,0.081,south,2.4,No
2021/06/25,01:50,0.163,0.151,0.239,0.232,0.231,0.128,0.081,south,1.9,No
2021/06/25,02:00,0.164,0.150,0.238,0.229,0.231,0.128,0.081,south,2.4,No
2021/06/25,02:10,0.163,0.151,0.239,0.232,0.230,0.129,0.081,south-southwest,2.6,No
2021/06/25,02:20,0.164,0.150,0.237,0.230,0.231,0.128,0.081,southwest,2.4,No
2021/06/25,02:30,0.163,0.151,0.239,0.232,0.231,0.129,0.081,southwest,2.6,No
2021/06/25,02:40,0.164,0.151,0.238,0.231,0.230,0.128,0.080,southwest,2.1,No
2021/06/25,02:50,0.162,0.150,0.238,0.231,0.231,0.129,0.081,west-southwest,2.3,No
2021/06/25,03:00,0.165,0.151,0.238,0.231,0.231,0.128,0.081,west-southwest,2.8,No
2021/06/25,03:10,0.163,0.151,0.239,0.230,0.231,0.129,0.081,west-southwest,2.2,No
2021/06/25,03:20,0.164,0.151,0.238,0.231,0.232,0.127,0.081,southwest,2.0,No
2021/06/25,03:30,0.162,0.151,0.238,0.230,0.230,0.129,0.081,southwest,2.1,No
2021/06/25,03:40,0.164,0.151,0.239,0.231,0.231,0.128,0.081,southwest,2.9,No
2021/06/25,03:50,0.163,0.152,0.237,0.231,0.231,0.128,0.081,west-southwest,3.1,No
2021/06/25,04:00,0.164,0.151,0.239,0.231,0.232,0.128,0.080,west-southwest,2.5,No
2021/06/25,04:10,0.163,0.151,0.237,0.230,0.230,0.128,0.081,southwest,2.6,No
2021/06/25,04:20,0.164,0.151,0.240,0.232,0.231,0.128,0.080,south-southwest,2.0,No
2021/06/25,04:30,0.162,0.151,0.237,0.230,0.230,0.128,0.081,south-southwest,2.2,No
2021/06/25,04:40,0.165,0.151,0.238,0.230,0.229,0.128,0.081,south-southwest,2.1,No
2021/06/25,04:50,0.163,0.152,0.238,0.230,0.231,0.128,0.080,south-southwest,2.2,No
2021/06/25,05:00,0.164,0.151,0.236,0.232,0.231,0.129,0.081,south-southwest,2.2,No
2021/06/25,05:10,0.163,0.151,0.239,0.230,0.232,0.128,0.082,south-southwest,1.9,No
2021/06/25,05:20,0.163,0.152,0.236,0.231,0.231,0.129,0.081,south,2.9,No
2021/06/25,05:30,0.162,0.150,0.238,0.230,0.230,0.129,0.081,south-southwest,3.7,No
2021/06/25,05:40,0.164,0.150,0.237,0.232,0.232,0.128,0.081,south-southwest,2.7,No
2021/06/25,05:50,0.162,0.151,0.238,0.230,0.230,0.129,0.080,south-southwest,3.0,No
2021/06/25,06:00,0.164,0.151,0.237,0.231,0.231,0.128,0.080,south-southwest,2.5,No
2021/06/25,06:10,0.162,0.150,0.238,0.229,0.230,0.128,0.081,south-southwest,2.8,No
2021/06/25,06:20,0.164,0.151,0.237,0.231,0.230,0.128,0.081,south-southwest,2.6,No
2021/06/25,06:30,0.163,0.150,0.238,0.229,0.232,0.128,0.080,south-southwest,2.6,No
2021/06/25,06:40,0.162,0.152,0.238,0.230,0.230,0.128,0.081,south,2.2,No
2021/06/25,06:50,0.163,0.150,0.238,0.230,0.230,0.129,0.080,south,2.7,No
2021/06/25,07:00,0.162,0.149,0.239,0.228,0.231,0.128,0.079,south,3.0,No
2021/06/25,07:10,0.164,0.149,0.236,0.231,0.229,0.129,0.080,south-southwest,2.6,No
2021/06/25,07:20,0.161,0.150,0.235,0.229,0.232,0.127,0.081,south-southwest,3.0,No
2021/06/25,07:30,0.163,0.150,0.238,0.228,0.231,0.129,0.080,south,2.8,No
2021/06/25,07:40,0.164,0.150,0.237,0.231,0.229,0.129,0.081,south,2.8,No
2021/06/25,07:50,0.162,0.149,0.236,0.231,0.228,0.127,0.080,south,2.7,No
2021/06/25,08:00,0.163,0.149,0.236,0.230,0.233,0.127,0.079,south-southeast,3.1,No
2021/06/25,08:10,0.163,0.150,0.235,0.229,0.231,0.129,0.080,south,2.8,No
2021/06/25,08:20,0.162,0.151,0.235,0.228,0.229,0.128,0.081,south,2.3,No
2021/06/25,08:30,0.164,0.151,0.233,0.228,0.228,0.128,0.081,south-southeast,3.5,No
2021/06/25,08:40,0.164,0.151,0.236,0.230,0.230,0.127,0.080,south-southeast,4.5,No
2021/06/25,08:50,0.163,0.150,0.235,0.232,0.232,0.129,0.081,south-southeast,5.9,No
2021/06/25,09:00,0.163,0.150,0.241,0.231,0.231,0.129,0.081,south-southeast,6.1,No
2021/06/25,09:10,0.164,0.152,0.240,0.230,0.230,0.128,0.080,south,6.0,No
2021/06/25,09:20,0.163,0.151,0.238,0.229,0.230,0.128,0.079,south-southeast,5.9,No
2021/06/25,09:30,0.163,0.150,0.238,0.228,0.229,0.128,0.080,south-southeast,6.1,No
2021/06/25,09:40,0.161,0.150,0.237,0.228,0.229,0.129,0.080,south,6.0,No
2021/06/25,09:50,0.161,0.150,0.238,0.227,0.230,0.128,0.080,south-southeast,5.9,No
2021/06/25,10:00,0.161,0.149,0.236,0.229,0.232,0.128,0.080,south-southeast,6.7,No
2021/06/25,10:10,0.163,0.150,0.236,0.229,0.232,0.128,0.078,south-southeast,7.0,No
2021/06/25,10:20,0.164,0.149,0.236,0.232,0.231,0.128,0.080,south-southeast,7.1,No
2021/06/25,10:30,0.163,0.151,0.236,0.232,0.230,0.128,0.080,south-southeast,6.8,No
2021/06/25,10:40,0.162,0.151,0.236,0.230,0.230,0.129,0.080,south-southeast,7.0,No
2021/06/25,10:50,0.162,0.150,0.238,0.230,0.229,0.128,0.080,south-southeast,8.1,No
2021/06/25,11:00,0.161,0.150,0.242,0.230,0.229,0.128,0.080,south-southeast,7.9,No
2021/06/25,11:10,0.163,0.149,0.241,0.228,0.229,0.129,0.080,south-southeast,7.8,No
2021/06/25,11:20,0.164,0.149,0.241,0.229,0.229,0.128,0.079,south-southeast,8.7,No
2021/06/25,11:30,0.164,0.150,0.238,0.231,0.233,0.128,0.079,south,9.2,No
2021/06/25,11:40,0.162,0.152,0.238,0.232,0.232,0.128,0.080,south-southeast,8.1,No
2021/06/25,11:50,0.162,0.151,0.237,0.231,0.231,0.129,0.080,south-southeast,8.8,No
2021/06/25,12:00,0.162,0.150,0.237,0.230,0.229,0.129,0.079,south-southeast,9.0,No
2021/06/25,12:10,0.164,0.150,0.241,0.229,0.230,0.129,0.080,south-southeast,8.8,No
2021/06/25,12:20,0.163,0.152,0.239,0.232,0.232,0.128,0.081,south,8.6,No
2021/06/25,12:30,0.162,0.152,0.239,0.233,0.231,0.128,0.081,south,8.5,No
2021/06/25,12:40,0.163,0.151,0.237,0.231,0.231,0.129,0.079,south,8.2,No
2021/06/25,12:50,0.165,0.150,0.240,0.231,0.230,0.129,0.079,south,7.1,No
2021/06/25,13:00,0.164,0.149,0.241,0.230,0.230,0.128,0.079,south-southeast,7.5,No
2021/06/25,13:10,0.163,0.151,0.239,0.230,0.231,0.128,0.080,south,7.8,No
2021/06/25,13:20,0.161,0.151,0.238,0.232,0.229,0.128,0.080,south-southeast,8.5,No
2021/06/25,13:30,0.162,0.151,0.238,0.233,0.233,0.129,0.080,south-southeast,8.6,No
2021/06/25,13:40,0.162,0.151,0.238,0.232,0.233,0.129,0.080,south,8.6,No
2021/06/25,13:50,0.162,0.150,0.237,0.231,0.232,0.129,0.080,south,8.2,No
2021/06/25,14:00,0.162,0.150,0.238,0.232,0.231,0.128,0.080,south-southeast,8.6,No
2021/06/25,14:10,0.162,0.151,0.237,0.232,0.231,0.129,0.079,south,9.5,No
2021/06/25,14:20,0.162,0.150,0.239,0.230,0.231,0.128,0.080,south-southeast,8.5,No
2021/06/25,14:30,0.161,0.150,0.238,0.230,0.230,0.128,0.080,south-southeast,10.1,No
2021/06/25,14:40,0.162,0.150,0.239,0.230,0.230,0.128,0.081,south-southeast,7.9,No
2021/06/25,14:50,0.163,0.150,0.238,0.230,0.231,0.129,0.080,south-southeast,9.5,No
2021/06/25,15:00,0.162,0.151,0.239,0.231,0.230,0.129,0.080,south-southeast,9.0,No
2021/06/25,15:10,0.163,0.150,0.238,0.230,0.230,0.129,0.080,south-southeast,11.4,No
2021/06/25,15:20,0.162,0.152,0.239,0.234,0.230,0.128,0.080,south-southeast,10.0,No
2021/06/25,15:30,0.164,0.152,0.242,0.234,0.230,0.128,0.080,south-southeast,9.8,No
2021/06/25,15:40,0.165,0.151,0.242,0.232,0.230,0.129,0.079,south-southeast,8.9,No
2021/06/25,15:50,0.164,0.150,0.241,0.231,0.234,0.128,0.080,south,10.9,No
2021/06/25,16:00,0.162,0.152,0.240,0.234,0.233,0.128,0.080,south-southeast,9.3,No
2021/06/25,16:10,0.163,0.152,0.242,0.234,0.233,0.128,0.080,south,9.2,No
2021/06/25,16:20,0.166,0.152,0.241,0.233,0.229,0.129,0.080,south,8.3,No
2021/06/25,16:30,0.165,0.152,0.239,0.232,0.234,0.129,0.079,south,9.3,No
2021/06/25,16:40,0.163,0.152,0.241,0.234,0.233,0.128,0.080,south,9.2,No
2021/06/25,16:50,0.164,0.151,0.241,0.233,0.231,0.128,0.079,south,7.1,No
2021/06/25,17:00,0.165,0.150,0.240,0.232,0.230,0.129,0.080,south,8.7,No
2021/06/25,17:10,0.164,0.153,0.239,0.234,0.233,0.127,0.081,south,7.4,No
2021/06/25,17:20,0.162,0.152,0.242,0.233,0.232,0.130,0.080,south,7.6,Yes
2021/06/25,17:30,0.164,0.151,0.241,0.232,0.232,0.129,0.081,south,7.4,Yes
2021/06/25,17:40,0.165,0.152,0.241,0.234,0.234,0.129,0.081,south,7.0,Yes
2021/06/25,17:50,0.164,0.152,0.243,0.234,0.233,0.130,0.080,south,6.7,No
2021/06/25,18:00,0.165,0.152,0.240,0.233,0.231,0.130,0.080,south,6.4,No
2021/06/25,18:10,0.165,0.152,0.240,0.235,0.235,0.128,0.080,south,5.4,No
2021/06/25,18:20,0.164,0.152,0.242,0.235,0.234,0.129,0.081,south,4.6,No
2021/06/25,18:30,0.164,0.152,0.240,0.233,0.231,0.130,0.080,south,5.2,No
2021/06/25,18:40,0.165,0.153,0.241,0.235,0.234,0.129,0.082,south,6.7,No
2021/06/25,18:50,0.163,0.153,0.241,0.233,0.233,0.129,0.080,south,7.8,No
2021/06/25,19:00,0.164,0.152,0.241,0.235,0.232,0.129,0.081,south-southwest,7.8,No
2021/06/25,19:10,0.164,0.153,0.242,0.234,0.234,0.129,0.081,south-southwest,8.1,No
2021/06/25,19:20,0.163,0.150,0.241,0.232,0.233,0.130,0.080,south-southwest,8.1,No
2021/06/25,19:30,0.165,0.152,0.240,0.235,0.233,0.129,0.081,south-southwest,7.9,No
2021/06/25,19:40,0.165,0.152,0.242,0.233,0.234,0.129,0.081,south-southwest,6.8,No
2021/06/25,19:50,0.163,0.152,0.239,0.232,0.232,0.130,0.081,south-southwest,7.0,No
2021/06/25,20:00,0.165,0.152,0.243,0.235,0.234,0.129,0.080,south,6.7,No
2021/06/25,20:10,0.164,0.151,0.241,0.233,0.233,0.129,0.081,south-southwest,7.1,No
2021/06/25,20:20,0.164,0.153,0.241,0.235,0.232,0.129,0.080,south-southwest,6.9,No
2021/06/25,20:30,0.165,0.151,0.242,0.233,0.233,0.129,0.079,south-southwest,7.2,No
2021/06/25,20:40,0.164,0.152,0.242,0.234,0.232,0.129,0.080,south-southwest,6.7,No
2021/06/25,20:50,0.164,0.152,0.242,0.235,0.233,0.129,0.080,south,5.9,No
2021/06/25,21:00,0.164,0.151,0.240,0.232,0.233,0.129,0.079,south,5.7,No
2021/06/25,21:10,0.163,0.152,0.242,0.235,0.232,0.129,0.081,south,5.9,No
2021/06/25,21:20,0.165,0.153,0.241,0.232,0.233,0.129,0.080,south-southwest,6.2,No
2021/06/25,21:30,0.164,0.152,0.241,0.234,0.231,0.128,0.080,south-southwest,5.6,No
2021/06/25,21:40,0.165,0.151,0.241,0.234,0.234,0.130,0.080,south-southwest,4.9,No
2021/06/25,21:50,0.163,0.152,0.241,0.234,0.234,0.129,0.081,south-southwest,3.8,No
2021/06/25,22:00,0.164,0.151,0.242,0.235,0.232,0.129,0.080,south-southwest,3.1,No
2021/06/25,22:10,0.165,0.152,0.241,0.232,0.234,0.129,0.080,south-southwest,2.8,No
2021/06/25,22:20,0.164,0.153,0.243,0.234,0.233,0.128,0.081,south-southwest,2.9,No
2021/06/25,22:30,0.165,0.153,0.240,0.233,0.233,0.130,0.080,south-southwest,2.4,No
2021/06/25,22:40,0.163,0.152,0.242,0.235,0.231,0.129,0.081,south-southwest,2.8,No
2021/06/25,22:50,0.165,0.153,0.241,0.235,0.234,0.129,0.081,south,3.3,No
2021/06/25,23:00,0.164,0.151,0.242,0.234,0.233,0.129,0.080,south,3.9,No
2021/06/25,23:10,0.165,0.153,0.241,0.235,0.232,0.130,0.081,south,3.6,No
2021/06/25,23:20,0.165,0.152,0.242,0.233,0.234,0.130,0.081,south,2.9,No
2021/06/25,23:30,0.164,0.152,0.242,0.235,0.231,0.128,0.081,south-southeast,3.1,No
2021/06/25,23:40,0.165,0.152,0.242,0.234,0.234,0.130,0.080,south,4.7,No
2021/06/25,23:50,0.164,0.153,0.242,0.235,0.232,0.129,0.082,south,5.3,No
